www.pogodaiklimat.ru

Архив погоды в Фергане (Ферганская область, Узбекистан)

Время
(UTC), дата
03 21.05
06 21.05
09 21.05
12 21.05
15 21.05
18 21.05
21 21.05
00 22.05
03 22.05
06 22.05
09 22.05
12 22.05
15 22.05
18 22.05
21 22.05
00 23.05
03 23.05
06 23.05
09 23.05
12 23.05
15 23.05
18 23.05
21 23.05
00 24.05
03 24.05
06 24.05
09 24.05
12 24.05
15 24.05
18 24.05
21 24.05
00 25.05
03 25.05
06 25.05
09 25.05
12 25.05
15 25.05
18 25.05
21 25.05
00 26.05
03 26.05
06 26.05
09 26.05
12 26.05
15 26.05
18 26.05
21 26.05
00 27.05
03 27.05
06 27.05
09 27.05
12 27.05
15 27.05
18 27.05
21 27.05
Ветер
(напр.,м/с)
Видим. Явления Облачность Т
(С)
Тd
(С)
f
(%)
Тe
(С)
Тes
(С)
Комфортность P
(гПа)
Po
(гПа)
Тmin
(С)
Tmax
(С)
R
(мм)
R24
(мм)
S
(см)
СВ 1 20 км 3/0
[Ci fib]
+20.3 +10.6 54 +23 +31 комфорт 1017.8 952.4
В 1 10 км 8/0
[Cs]
+22.9 +12.2 51 +26 +44 жарко 1016.3 951.5 +14.5
СВ 2 10 км 10/0
[Ci fib]
+25.8 +12.7 44 +28 +41 жарко 1014.2 950.2
СЗ 1 10 км 10/0
[Ac trans Ci fib]
+26.5 +12.8 43 +28 +32 жарко 1013.0 949.3
С 1 н/о 10/4 1000 м
[Sc Ac cuf Ci ing]
+23.9 +14.3 55 +26 +26 жарко 1014.1 949.8 +27.2
штиль 0 н/о 6/0
[Ci fib]
+20.1 +14.2 69 +22 +22 комфорт 1015.6 950.4 +27.2
штиль 0 н/о ясно +16.8 +14.2 85 +17 +17 по сезону 1016.0 950.0
штиль 0 10 км ясно +15.1 +13.1 88 +15 +15 по сезону 1015.5 949.2
СЗ 1 20 км ясно +21.9 +14.0 61 +25 +33 комфорт 1014.3 949.6
СЗ 2 10 км ясно +27.0 +14.6 47 +30 +48 душно 1012.9 949.3 +14.9
З 1 10 км ясно +29.1 +14.4 41 +31 +51 опасность солнечного удара 1010.7 947.6
СЗ 2 10 км 10/0
[Ac cuf Ci fib]
+29.3 +15.1 42 +32 +34 душно 1009.5 946.6
штиль 0 н/о 10/3 1000 м
[Sc Ac trans]
+24.1 +17.0 65 +28 +28 душно 1010.9 946.9 +30.4
ЮВ 1 н/о 10/3 1000 м
[Sc Ac trans]
+21.5 +14.5 64 +24 +24 комфорт 1012.5 947.8 +30.4
штиль 0 н/о 10/0
[Ac cuf Ci fib]
+19.5 +15.1 76 +21 +21 комфорт 1011.7 946.6
штиль 0 н/о 10/0
[Ac As]
+17.7 +14.6 82 +18 +18 тепло 1012.0 946.6
ЮВ 1 10 км 10/5 1000 м
[Sc Ac trans]
+21.7 +15.0 66 +25 +27 комфорт 1011.7 947.2
Ю 1 10 км слаб. ливневой дождь 10/6 1000 м
[Sc Ac As]
+24.0 +15.0 57 +27 +29 жарко 1011.1 947.0 +17.5
З 2 10 км {ливн. дождь} 10/1 1000 м
[Sc Ac trans Cc]
+28.5 +15.1 44 +31 +39 душно 1008.3 945.3
В 2 10 км {ливн. дождь} 8/1 1000 м
[Cu med, cong Ci fib]
+28.6 +13.7 40 +30 +34 жарко 1007.1 944.2
СВ 1 н/о 10/0
[Ac trans Ci fib]
+25.2 +15.1 54 +28 +28 жарко 1007.8 944.2 +29.1
ЮВ 1 н/о ясно +20.5 +15.9 75 +25 +25 комфорт 1008.6 943.9 +29.1 0.0
Ю 1 н/о 4/0
[Ac trans]
+18.8 +15.4 81 +21 +21 комфорт 1007.8 942.9
ЮВ 1 н/о 10/0
[Ac lent Ci fib]
+17.0 +14.4 85 +18 +18 тепло 1007.3 942.0
СВ 1 10 км 10/0
[Ac lent Ci fib]
+24.0 +14.4 55 +27 +32 жарко 1004.7 941.0
З 2 10 км 10/0
[Ac As Ci fib]
+26.0 +16.6 56 +30 +41 душно 1004.1 941.0 +16.8
З 2 10 км слаб. ливневой дождь 10/5 600 м
[Cb cap Ac As]
+24.7 +16.0 58 +28 +30 душно 1004.9 941.4
З 3 10 км {ливн. дождь} 10/6 600 м
[Cb cap Ac trans]
+21.1 +14.0 64 +24 +24 комфорт 1010.6 945.9
ЮВ 1 н/о {ливн. дождь} 10/5 600 м
[Cb cap Ac trans Ci fib]
+20.9 +14.0 65 +25 +25 комфорт 1011.5 946.7 +27.0 0.1
штиль 0 н/о {ливн. дождь} 4/0
[Ci fib]
+16.8 +15.1 90 +17 +17 прохладно 1012.8 947.1 +27.0 0.1
штиль 0 н/о 8/0
[Ci fib]
+15.0 +13.5 91 +15 +15 прохладно 1013.2 947.1
штиль 0 50 км 3/0
[Ci fib]
+14.4 +12.6 89 +14 +14 прохладно 1013.5 947.1
ЮВ 1 50 км 3/0
[Ci fib]
+20.8 +13.7 64 +25 +32 комфорт 1012.7 947.9
С 1 10 км 10/0
[Ci fib]
+26.0 +14.1 48 +28 +46 жарко 1010.6 947.0 +13.9
В 1 10 км 8/0
[Ac trans Ci fib]
+29.6 +12.7 35 +31 +45 жарко 1008.9 946.1
СЗ 1 10 км 10/5 1000 м
[Sc Ac cuf Ci fib]
+28.1 +12.8 39 +30 +31 жарко 1007.8 944.7
З 5 н/о 10/5 600 м
[Cb cap Ac trans]
+23.8 +10.4 43 +25 +25 комфорт 1011.9 947.6 +30.5
С 3 н/о {ливн. дождь} 10/5 600 м
[Cb cap Ac trans]
+21.9 +12.0 53 +24 +24 комфорт 1014.0 949.2 +30.5
З 2 н/о 10/0
[Ac As]
+21.7 +9.7 46 +23 +23 комфорт 1014.1 949.2
ЮЗ 4 10 км 10/8 600 м
[Cb cap Ac trans]
+20.7 +7.3 42 +22 +22 комфорт 1015.1 949.9
СЗ 2 10 км 10/4 1000 м
[Sc Ac und Cc]
+18.8 +8.6 51 +20 +22 тепло 1018.4 952.5
Ю 1 10 км {ливн. дождь} 10/3 1000 м
[Sc Ac trans Ci fib]
+18.4 +8.8 54 +20 +27 прохладно 1019.5 953.5 +18.6 0.0
В 1 10 км 10/4 1000 м
[Sc Ac trans]
+20.2 +9.0 48 +23 +27 комфорт 1019.5 953.9
В 2 10 км 10/3 1000 м
[Sc Ac trans Ci fib]
+23.0 +9.8 43 +25 +26 комфорт 1018.5 953.6
СЗ 1 10 км 5/0
[Ac cuf Ci fib]
+18.7 +11.0 61 +20 +20 по сезону 1021.1 955.1 +23.1
штиль 0 н/о 3/0
[Ci fib]
+14.5 +11.5 82 +14 +14 прохладно 1022.5 955.5 +23.1 0.0
штиль 0 н/о 3/0
[Ci fib]
+11.3 +8.5 83 +11 +11 холодно 1021.7 954.0
ЮВ 1 50 км 1/0
[Ci fib]
+10.9 +7.6 80 +11 +11 по сезону 1020.1 952.4
СЗ 1 50 км 3/0
[Ci fib]
+18.9 +6.2 43 +20 +28 тепло 1017.4 951.6
ЮВ 1 10 км 8/0
[Ac cuf Cc]
+23.4 +4.5 29 +23 +41 комфорт 1014.2 949.6 +10.5
В 1 10 км 3/0
[Ac cuf Ci fib]
+26.5 +2.7 21 +25 +41 комфорт 1011.5 947.7
З 1 20 км 6/1 1000 м
[Sc Ac cuf Ci fib]
+27.7 +0.2 17 +26 +29 жарко 1009.9 946.4
С 1 10 км 9/5 1000 м
[Sc Ac trans Ci fib]
+24.0 +5.5 30 +24 +24 комфорт 1011.2 946.9 +27.9
ЮВ 1 н/о 8/0
[Ac trans Ci fib]
+20.2 +9.0 48 +23 +23 комфорт 1012.1 947.0 +27.9
ЮВ 1 н/о 8/0
[Ac As Ci fib]
+17.2 +7.7 54 +18 +18 тепло 1013.2 947.4
Местоположение метеостанции Фергана (Ферганская область, Узбекистан): широта 40.37 долгота 71.75 высота над уровнем моря 577 м.
В архиве по умолчанию представлена погода в Фергане за последнюю неделю. Архивные данные за месяц целиком и за предыдущие месяцы, начиная с января 2011 года, Вы можете получить, выбрав интересующий диапазон дат из раскрывающегося списка и нажав кнопку "Найти!".
*Определитесь, кто Вы:
Внимание! Время в таблицах - всемирное. Для получения местного времени необходимо прибавить поправку, которая равна 5 ч.
Некоторые строки с данными для отдельных станций могут быть выделены курсивом. Это означает, что фактические данные отсутствуют по различным причинам, а приведенные значения являются расчетными модельными данными для данного пункта наблюдений.
Смотрите также архив погоды в соседних городах и на ближайших метеорологических станциях:
Партнеры нашего сайта:      
Пояснения к столбцам:
  • Ветер - указаны скорость ветра в м/с - средняя за 10 мин, порывы в срок и между сроками (в фигурных скобках) и направление, откуда дует ветер: С - северный,
  • СВ - северо-восточный, В - восточный, ЮВ - юго-восточный, Ю - южный, ЮЗ - юго-западный, З - западный, СЗ - северо-западный.
  • Видимость - горизонтальная дальность видимости в метрах или километрах. При видимости от 1 до 10 км при отсутствии осадков обычно наблюдается дымка, при ухудшении видимости до 1 км и менее - туман. В сухую погоду видимость может ухудшаться дымом, пылью или мглою.
  • Явления - указаны атмосферные явления, наблюдавшиеся в срок или в последний час перед сроком; фигурными скобками обозначены явления, наблюдавшиеся между сроками (за 1-3 часа до срока); квадратными скобками обозначены град или гололедные отложения с указанием их диаметра в мм.
  • Облачность - указаны через наклонную черту общая и нижняя облачность в баллах и высота нижней границы облаков в метрах; квадратными скобками обозначены формы облаков: Ci - перистые, Cs - перисто-слоистые, Cc - перисто-кучевые, Ac - высококучевые, As - высокослоистые, Sc - слоисто-кучевые, Ns - слоисто-дождевые, Cu - кучевые, Cb - кучево-дождевые. Подробнее классификацию облаков см. в Атласе облаков (PDF).
  • T - Температура воздуха - температура, измеренная на высоте 2 м над землей.
  • Td - Температура точки росы - температура, при понижении до которой содержащийся в воздухе водяной пар достигнет насыщения.
  • f - Относительная влажность воздуха - влажноcть воздуха, измеренная на высоте 2 м над землей.
  • Te - Эффективная температура - температура, которую ощущает одетый по сезону человек в тени. Характеристика душности погоды. При расчете учитывается влияние влажности воздуха и скорости ветра на теплоощущения человека.
  • Tes - Эффективная температура на солнце - температура, которую ощущает человек, с поправкой на солнечный нагрев. Характеристика знойности погоды. Зависит от высоты солнца над горизонтом, облачности и скорости ветра. Ночью, в пасмурную погоду, а также при ветре 12 м/с и более поправка равна нулю.
  • P - Атмосферное давление - приведенное к уровню моря атмосферное давление.
  • Po - Атмосферное давление - измеренное на уровне метеостанции атмосферное давление.
  • Tmin - Минимальная температура - минимум температуры воздуха на высоте 2 м над землей.
  • Tmax - Максимальная температура - максимум температуры воздуха на высоте 2 м над землей.
  • R - Количество осадков - Количество выпавших осадков за период времени, мм. При наведении курсора мыши на число - период времени, за который выпало указанное количество осадков.
  • R24 - Количество осадков - Количество выпавших осадков за 24 часа, мм.
  • S - Снежный покров - Высота снежного покрова, см. При наведении курсора мыши на число - состояние снежного покрова и степень покрытия местности в баллах.